Flag for U.S.A. Weather past 2 weeks in Lubbock, Texas, U.S.A.

Now
61 °F

Partly cloudy.


Feels Like: 61 °F
Forecast: 58 / 87 °F
Wind: 15 mph from South

Location: Lubbock International Airport


UV Index: 7 (High)

Visibility: 10 mi


Pressure: 29.73 "Hg

Humidity: 60%

Dew point: 47 °F

Location of LubbockLocation

Historic Weather in Lubbock

°F

Lubbock temperature yesterday

Maximum temperature yesterday: 83 °F (at 2:53 PM)
Minimum temperature yesterday: 52 °F (at 7:53 AM)
Average temperature yesterday: 68 °F

Past Weeks' High & Low Weather Summary

 TemperatureHumidityPressure
High90 °F (Apr 10, 1:53 PM)96% (Apr 20, 5:53 AM)30.34 "Hg (Apr 20, 5:53 AM)
Low25 °F (Apr 15, 6:53 AM)3% (Apr 10, 2:53 PM)29.44 "Hg (Apr 13, 4:53 PM)
Average62 °F41%29.92 "Hg
* Reported Apr 8 5:53 AM — Apr 23 5:53 AM, Lubbock, Weather by CustomWeather, © 2014

Note: Actual official high and low records may vary slightly from our data, if they occured in-between our weather recording intervals... More about our weather records

Advertising

Historic Weather Conditions — Data for Previous 24 hours

 ConditionsComfort  
Time TempWeatherWind HumidityBarometerVisibility
5:53 AM
Apr 23
61 °FPassing clouds.14 mph58%29.73 "Hg10 mi
4:53 AM62 °FPassing clouds.16 mph56%29.74 "Hg10 mi
3:53 AM62 °FPassing clouds.17 mph52%29.74 "Hg10 mi
2:53 AM63 °FClear.15 mph47%29.76 "Hg10 mi
1:53 AM65 °FPassing clouds.17 mph42%29.78 "Hg10 mi
12:53 AM66 °FClear.20 mph37%29.79 "Hg10 mi
11:53 PM
Apr 22
67 °FClear.15 mph33%29.80 "Hg10 mi
10:53 PM70 °FClear.17 mph28%29.82 "Hg10 mi
9:53 PM72 °FClear.17 mph26%29.81 "Hg10 mi
8:53 PM74 °FPassing clouds.14 mph23%29.82 "Hg10 mi
7:53 PM79 °FPassing clouds.17 mph19%29.82 "Hg10 mi
6:53 PM82 °FPassing clouds.16 mph18%29.81 "Hg10 mi
5:53 PM83 °FPassing clouds.15 mph17%29.83 "Hg10 mi
4:53 PM83 °FPassing clouds.18 mph18%29.86 "Hg10 mi
3:53 PM83 °FSunny.15 mph19%29.89 "Hg10 mi
2:53 PM83 °FSunny.15 mph20%29.93 "Hg10 mi
1:53 PM79 °FSunny.14 mph28%29.97 "Hg10 mi
12:53 PM75 °FPassing clouds.9 mph36%30.02 "Hg10 mi
11:53 AM73 °FSunny.16 mph43%30.05 "Hg10 mi
10:53 AM67 °FBroken clouds.7 mph55%30.07 "Hg9 mi
9:53 AM64 °FBroken clouds.No wind63%30.07 "Hg10 mi
8:53 AM59 °FPartly sunny.5 mph75%30.07 "Hg10 mi
7:53 AM52 °FPassing clouds.5 mph89%30.07 "Hg8 mi
Weather by CustomWeather, © 2014

See weather overview